DELTA 1 DEB, 10709

Orbit data source: Space-Track

DELTA 1 DEB, 10709 is space debris in SSO originally from a launch on Thu, 29 Jul 1976 UTC launched from the Air Force Western Test Range (AFWTR). Debris objects in space refer to the collection of defunct objects orbiting the Earth. Examples of debris include non-operational satellites, rocket bodies, and fragments generated from explosions, collisions, or faulty payload assembly.

Loading next visibility...
DELTA 1 DEB details
Identifier
10709, 1976-077AE
Orbit
SSO
Last TLE update12 hours ago
Origin
Flag of USGSFC (US)
ManufacturerUnknown
MissionSpacecraft
Bus & MotorUnknown
MassUnknown
Launch date (UTC)
1976-07-29 (48 years ago)
Launch vehicleUnknown
Launch site
Air Force Western Test Range (AFWTR)
Object type
Payload
Rocket body
Debris
Shape & HBRUnknown
Radar Cross SectionMedium (>0.1 m² and <1 m²)

Expand to show TLE details & history

TLE from 12 hours ago
0 DELTA 1 DEB
1 10709U 76077AE  24361.11465005  .00000478  00000-0  35964-2 0  9990
2 10709 101.9135  63.4993 0023476 124.4117 309.9954 12.46488488198982
Epoch: 2024-12-26T02:45Z
Definitive object data (Epoch: 2024-12-26T02:45:05.764Z)
Latitude70.37854°
Longitude-108.95198°
Altitude1,479.383 km
Speed7.135 km/s
True Right ascension01h 49m 40s
True Declination70° 16' 46"
Sunlit
Object was in daylight at TLE epoch
Visualization TLE readout
Latitude77.46667°
Longitude178.41104°
Altitude1,476.097 km
Speed7.139 km/s
Apparent Right ascension00h 40m 07s
Apparent Declination32° 14' 22"
Sunlit
Object is in daylight
Visualization observer readout
Local Sidereal Time13:46:44
Azimuth14.623° NNE
Elevation-16.213°
Doppler factor1
Orbital elements
Apogee altitude1,495.218 km
Perigee altitude1,458.338 km
Semi-major axis7,854.915 km
Eccentricity0.0023476
Inclination101.9135°
RAAN63.4993°
Arg. of periapsis124.4117°
True anomaly309.78892°
Mean anomaly309.9954°
Eccentric anomaly309.8922°
Mean motion3.11768 °/min
BSTAR0.0035964
Orbital period115.47 mins
Loading maneuver chart data...
Loading historical data...
Loading historical data...
Loading historical data...
Loading historical data...
Loading historical data...
Loading historical data...
Loading historical data...

DELTA 1 DEB Visibility forecast

Observer location: undefined°, undefined

Span
Click to sort rows by Start time (UTC) header in descending order
Start Az.
Max El. time (UTC)
Max El. Az.
Max El.
End time (UTC)
End Az.
14 mins2024-12-26 16:28:54.094Z34.656° NE2024-12-26 16:35:54.094Z102.624° ESE33.278°2024-12-26 16:42:54.094Z166.022° S
13 mins2024-12-26 18:22:54.094Z1.403° NNE2024-12-26 18:28:54.094Z301.173° NW35.355°2024-12-26 18:35:54.094Z231.805° WSW
5 mins2024-12-27 01:43:54.094Z61.164° ENE2024-12-27 01:45:54.094Z46.364° ENE12.693°2024-12-27 01:48:54.094Z24.302° NE
14 mins2024-12-27 03:30:54.094Z138.418° SSE2024-12-27 03:37:54.094Z60.174° ENE40.256°2024-12-27 03:44:54.094Z351.669° N
12 mins2024-12-27 05:25:54.094Z211.647° SW2024-12-27 05:30:54.094Z256.989° W27.404°2024-12-27 05:37:54.094Z319.811° NNW
|